Location: Unspecified
(0.0000°N, 0.0000°E)
Time: 11:18:43
(UTC+00:00)

Transit 2A - Pass Details

Date: 20 November 2019
Orbit: 602 x 957 km, 66.7° (Epoch: 14 December)

Event Time Altitude Azimuth Distance (km) Brightness Sun altitude
Rises 11:04:37 0° 223° (SW) 3,502 9.5 67.9°
Reaches altitude 10° 11:07:40 10° 236° (SW) 2,505 8.9 68.2°
Maximum altitude 11:12:13 24° 288° (WNW) 1,636 7.9 68.7°
Drops below altitude 10° 11:16:26 10° 341° (NNW) 2,306 8.4 69.1°
Sets 11:19:09 0° 355° (N) 3,164 9.0 69.3°
